Flag for USA

Past Weather in Tampa, Florida, USA — Yesterday and Last 2 Weeks

Now
82 °F

Passing clouds.


Feels Like: 92 °F
Forecast: 90 / 79 °F
Wind: 6 mph from West

Location: Tampa, Peter O Knight Airport

Current Time: Jul 9, 2020 at 2:06:57 am

Latest Report: Jul 9, 2020 at 1:15 am


Visibility: 10 mi

Pressure: 29.96 "Hg

Humidity: 89%

Dew Point: 79 °F

Location of TampaLocation

Past Weather in Tampa — Graph

°F

Tampa Temperature Yesterday

Maximum temperature yesterday: 91 °F (at 12:15 pm)
Minimum temperature yesterday: 81 °F (at 12:15 am)
Average temperature yesterday: 85 °F

High & Low Weather Summary for the Past Weeks

 TemperatureHumidityPressure
High99 °F (Jun 26, 3:55 pm)100% (Jun 25, 6:15 am)30.21 "Hg (Jun 25, 6:15 am)
Low75 °F (Jul 6, 10:15 pm)44% (Jun 24, 5:15 pm)29.90 "Hg (Jul 3, 5:15 pm)
Average86 °F80%30.02 "Hg
* Reported Jun 24 12:35 am — Jul 9 12:55 am, Tampa. Weather by CustomWeather, © 2020

Note: Actual official high and low records may vary slightly from our data, if they occured in-between our weather recording intervals... More about our weather records

Tampa Weather History for the Previous 24 Hours

Scroll right to see more
 ConditionsComfort  
Time TempWeatherWind HumidityBarometerVisibility
12:55 am
Thu, Jul 9
84 °FPassing clouds.6 mph84%29.97 "Hg10 mi
12:35 am84 °FPassing clouds.8 mph84%29.97 "Hg10 mi
12:15 am84 °FPassing clouds.6 mph84%29.98 "Hg10 mi
11:55 pm
Wed, Jul 8
84 °FPassing clouds.6 mph84%29.97 "Hg10 mi
11:35 pm84 °FPassing clouds.5 mph84%29.97 "Hg10 mi
11:15 pm84 °FPartly cloudy.6 mph84%29.96 "Hg10 mi
10:55 pm84 °FMostly cloudy.3 mph84%29.97 "Hg10 mi
10:35 pm84 °FMostly cloudy.8 mph84%29.96 "Hg10 mi
10:15 pm84 °FMostly cloudy.7 mph84%29.96 "Hg10 mi
9:55 pm84 °FOvercast.5 mph84%29.96 "Hg10 mi
9:15 pm84 °FMostly cloudy.6 mph84%29.94 "Hg10 mi
8:55 pm86 °FOvercast.7 mph79%29.94 "Hg10 mi
8:15 pm86 °FOvercast.6 mph79%29.93 "Hg10 mi
7:55 pm86 °FOvercast.7 mph79%29.93 "Hg10 mi
7:35 pm86 °FOvercast.8 mph75%29.93 "Hg10 mi
7:15 pm86 °FMore clouds than sun.7 mph79%29.93 "Hg10 mi
6:55 pm88 °FMore clouds than sun.8 mph75%29.93 "Hg10 mi
6:35 pm88 °FCloudy.8 mph75%29.94 "Hg10 mi
6:15 pm88 °FCloudy.8 mph79%29.93 "Hg10 mi
5:55 pm88 °FScattered clouds.8 mph79%29.93 "Hg10 mi
5:35 pm88 °FSunny.9 mph75%29.94 "Hg10 mi
5:15 pm88 °FScattered clouds.9 mph75%29.95 "Hg10 mi
4:55 pm88 °FScattered clouds.9 mph75%29.95 "Hg10 mi
4:35 pm88 °FScattered clouds.8 mph75%29.95 "Hg10 mi
4:15 pm88 °FScattered clouds.10 mph75%29.96 "Hg10 mi
3:55 pm90 °FBroken clouds.7 mph71%29.97 "Hg10 mi
3:35 pm90 °FScattered clouds.8 mph71%29.97 "Hg7 mi
2:55 pm90 °FScattered clouds.10 mph67%29.99 "Hg10 mi
2:35 pm90 °FScattered clouds.12 mph67%30.00 "Hg10 mi
2:15 pm90 °FScattered clouds.9 mph71%30.00 "Hg10 mi
1:55 pm90 °FBroken clouds.6 mph71%30.01 "Hg10 mi
1:35 pm90 °FBroken clouds.8 mph75%30.01 "Hg10 mi
12:55 pm90 °FBroken clouds.9 mph71%30.02 "Hg10 mi
12:35 pm91 °FScattered clouds.10 mph71%30.02 "Hg10 mi
12:15 pm91 °FScattered clouds.12 mph67%30.04 "Hg10 mi
11:55 am90 °FBroken clouds.8 mph71%30.04 "Hg10 mi
11:35 am90 °FPartly sunny.10 mph71%30.04 "Hg10 mi
11:15 am90 °FMore clouds than sun.9 mph71%30.03 "Hg10 mi
10:55 am90 °FMostly cloudy.9 mph71%30.03 "Hg10 mi
10:35 am88 °FMore clouds than sun.8 mph79%30.02 "Hg10 mi
10:15 am88 °FBroken clouds.6 mph79%30.02 "Hg10 mi
9:55 am88 °FCloudy.7 mph79%30.03 "Hg10 mi
9:35 am88 °FBroken clouds.6 mph79%30.02 "Hg10 mi
9:15 am86 °FBroken clouds.5 mph84%30.02 "Hg10 mi
8:55 am86 °FBroken clouds.5 mph84%30.02 "Hg10 mi
8:35 am86 °FBroken clouds.3 mph84%30.02 "Hg10 mi
8:15 am86 °FScattered clouds.3 mph84%30.02 "Hg10 mi
7:55 am84 °FSunny.No wind89%30.01 "Hg10 mi
7:35 am82 °FSunny.No wind94%30.01 "Hg10 mi
7:15 am82 °FScattered clouds.No wind94%30.00 "Hg10 mi
6:55 am82 °FScattered clouds.3 mph94%30.00 "Hg10 mi
6:35 am82 °FClear.No wind94%30.00 "Hg10 mi
6:15 am82 °FClear.No wind94%30.00 "Hg10 mi
5:55 am81 °FPassing clouds.No wind100%30.00 "Hg10 mi
5:35 am81 °FClear.No wind100%29.99 "Hg10 mi
5:15 am81 °FClear.No wind100%29.99 "Hg10 mi
4:55 am81 °FClear.No wind100%29.98 "Hg10 mi
4:35 am81 °FClear.No wind100%29.98 "Hg10 mi
4:15 am81 °FClear.No wind100%29.98 "Hg10 mi
3:55 am82 °FClear.No wind94%29.98 "Hg10 mi
3:35 am81 °FClear.No wind94%29.99 "Hg10 mi
3:15 am81 °FClear.No wind94%30.00 "Hg10 mi
2:55 am82 °FClear.No wind89%30.00 "Hg10 mi
2:35 am82 °FClear.3 mph89%30.00 "Hg10 mi
2:15 am82 °FClear.3 mph89%30.01 "Hg10 mi
Weather by CustomWeather, © 2020

See weather overview